User: anonymous   Login
Location: Caltech
(34.1382°N, 118.1253°W)
Time: 21:26:02
(UTC-07:00)
Language:

JAS-1B - Orbit

View from above orbital plane
View from above orbital plane
View from above satellite
View from above satellite

Ground track
Ground track

The orbit data is extracted from the following two-line orbital elements,

1 20480U 90013C   15091.19470751  .00000005  00000-0  76722-4 0  9990
2 20480 099.0743 005.6175 0540990 061.7933 103.1838 12.83403783178074
Epoch (UTC): 01 April 2015 04:40:22
Eccentricity: 0.0540990
inclination: 99.0743°
perigee height: 911 km
apogee height: 1744 km
right ascension of ascending node: 5.6175°
argument of perigee: 61.7933°
revolutions per day: 12.83403783
mean anomaly at epoch: 103.1838°
orbit number at epoch: 17807

The dashed part of the orbit path shows where the satellite is in the earth's shadow,  

DLR